Total_Precipitation_Accumulation
0.07 0.06 0.06 0.04 0.03 0.02 0.01 0.01 0.00 0.00 0.00 0.00 0.00 0.00 0.00 0.00 0.00 0.00 0.00 0.00 0.01 0.01 0.02 0.02 0.03 0.04 0.05 0.05 0.05 0.05 0.06 0.09 0.10 0.04 0.02 0.02 0.04 0.06 0.06 0.09 0.09 0.09 0.09
0.06 0.04 0.03 0.03 0.02 0.01 0.01 0.01 0.00 0.00 0.00 0.00 0.00 0.00 0.00 0.00 0.00 0.01 0.01 0.02 0.03 0.03 0.03 0.04 0.04 0.04 0.06 0.05 0.05 0.04 0.05 0.07 0.09 0.08 0.05 0.05 0.07 0.08 0.09 0.09 0.06 0.05 0.08
0.04 0.03 0.02 0.02 0.01 0.01 0.01 0.01 0.00 0.01 0.01 0.01 0.01 0.01 0.01 0.01 0.01 0.01 0.02 0.02 0.02 0.03 0.03 0.03 0.03 0.03 0.04 0.03 0.04 0.05 0.06 0.07 0.11 0.14 0.11 0.10 0.08 0.06 0.08 0.06 0.07 0.11 0.10
0.03 0.02 0.02 0.02 0.01 0.01 0.01 0.01 0.02 0.02 0.02 0.02 0.02 0.02 0.02 0.01 0.01 0.01 0.01 0.01 0.01 0.01 0.01 0.01 0.02 0.02 0.03 0.05 0.06 0.07 0.09 0.11 0.13 0.14 0.11 0.08 0.06 0.05 0.07 0.07 0.08 0.12 0.12
0.04 0.04 0.03 0.02 0.02 0.02 0.02 0.02 0.03 0.03 0.03 0.02 0.02 0.01 0.01 0.00 0.00 0.00 0.00 0.00 0.00 0.00 0.01 0.01 0.01 0.02 0.04 0.07 0.08 0.09 0.12 0.13 0.13 0.13 0.10 0.07 0.05 0.04 0.06 0.08 0.12 0.12 0.09
0.07 0.05 0.04 0.04 0.04 0.03 0.03 0.03 0.03 0.02 0.01 0.01 0.00 0.00 0.00 0.00 0.00 0.00 0.00 0.00 0.00 0.01 0.01 0.02 0.01 0.01 0.03 0.05 0.07 0.10 0.13 0.14 0.14 0.12 0.10 0.08 0.05 0.06 0.11 0.16 0.21 0.18 0.12
0.07 0.06 0.05 0.04 0.04 0.03 0.02 0.02 0.01 0.00 0.00 0.00 0.00 0.00 0.00 0.00 0.00 0.00 0.00 0.00 0.01 0.02 0.03 0.03 0.02 0.01 0.03 0.04 0.05 0.06 0.06 0.07 0.11 0.15 0.15 0.12 0.12 0.15 0.24 0.27 0.25 0.22 0.18
0.06 0.05 0.03 0.02 0.02 0.01 0.01 0.00 0.00 0.00 0.00 0.00 0.00 0.00 0.01 0.01 0.00 0.00 0.00 0.00 0.01 0.02 0.03 0.03 0.04 0.03 0.04 0.05 0.04 0.03 0.03 0.04 0.10 0.16 0.22 0.23 0.26 0.28 0.33 0.35 0.32 0.28 0.21
0.04 0.03 0.02 0.01 0.01 0.00 0.00 0.00 0.00 0.00 0.00 0.00 0.00 0.01 0.01 0.02 0.00 0.00 0.00 0.00 0.01 0.01 0.01 0.02 0.03 0.04 0.05 0.07 0.05 0.04 0.04 0.06 0.13 0.27 0.37 0.40 0.41 0.41 0.40 0.37 0.34 0.30 0.26
0.02 0.01 0.00 0.00 0.00 0.00 0.00 0.00 0.00 0.00 0.01 0.00 0.00 0.01 0.02 0.03 0.01 0.00 0.01 0.01 0.01 0.01 0.01 0.01 0.03 0.06 0.08 0.08 0.05 0.06 0.08 0.11 0.24 0.42 0.50 0.50 0.44 0.41 0.40 0.37 0.33 0.30 0.30
0.01 0.00 0.00 0.00 0.00 0.00 0.00 0.00 0.00 0.00 0.01 0.00 0.01 0.01 0.03 0.02 0.01 0.01 0.01 0.02 0.02 0.02 0.03 0.04 0.06 0.10 0.09 0.07 0.06 0.07 0.13 0.20 0.34 0.54 0.53 0.43 0.34 0.27 0.23 0.22 0.21 0.23 0.27
0.00 0.00 0.00 0.00 0.00 0.00 0.00 0.00 0.00 0.00 0.00 0.01 0.01 0.01 0.02 0.02 0.01 0.01 0.01 0.02 0.03 0.03 0.05 0.07 0.09 0.12 0.10 0.10 0.09 0.15 0.23 0.31 0.39 0.50 0.47 0.37 0.28 0.21 0.18 0.15 0.14 0.16 0.19
0.00 0.00 0.00 0.00 0.00 0.00 0.00 0.00 0.00 0.00 0.01 0.01 0.01 0.01 0.01 0.01 0.01 0.01 0.01 0.02 0.04 0.05 0.09 0.15 0.17 0.14 0.15 0.16 0.22 0.30 0.34 0.36 0.39 0.41 0.33 0.26 0.22 0.19 0.17 0.15 0.14 0.15 0.16
0.00 0.00 0.00 0.01 0.00 0.00 0.00 0.00 0.01 0.01 0.01 0.01 0.01 0.01 0.02 0.02 0.02 0.02 0.02 0.02 0.04 0.06 0.11 0.20 0.27 0.28 0.29 0.34 0.38 0.39 0.36 0.36 0.37 0.29 0.21 0.18 0.18 0.18 0.16 0.14 0.14 0.14 0.16
0.00 0.00 0.01 0.01 0.00 0.00 0.00 0.00 0.01 0.01 0.01 0.01 0.02 0.02 0.03 0.03 0.04 0.06 0.06 0.06 0.06 0.10 0.12 0.15 0.20 0.26 0.31 0.36 0.38 0.39 0.34 0.30 0.27 0.20 0.16 0.16 0.18 0.19 0.18 0.15 0.13 0.11 0.14
0.00 0.00 0.00 0.00 0.00 0.00 0.01 0.01 0.00 0.00 0.00 0.01 0.02 0.03 0.03 0.04 0.04 0.04 0.06 0.07 0.09 0.11 0.12 0.17 0.24 0.31 0.37 0.39 0.38 0.36 0.31 0.27 0.23 0.19 0.16 0.14 0.16 0.18 0.18 0.16 0.14 0.13 0.14
0.00 0.00 0.00 0.00 0.00 0.01 0.01 0.02 0.03 0.02 0.01 0.01 0.01 0.02 0.02 0.02 0.03 0.02 0.02 0.04 0.06 0.08 0.10 0.19 0.28 0.36 0.40 0.39 0.35 0.32 0.31 0.26 0.21 0.16 0.13 0.13 0.13 0.15 0.16 0.17 0.16 0.15 0.14
0.00 0.00 0.00 0.00 0.00 0.00 0.01 0.02 0.02 0.03 0.04 0.04 0.02 0.01 0.01 0.01 0.02 0.02 0.02 0.01 0.03 0.06 0.13 0.22 0.31 0.36 0.39 0.38 0.33 0.31 0.29 0.25 0.18 0.14 0.14 0.14 0.14 0.14 0.14 0.15 0.14 0.13 0.11
0.00 0.00 0.00 0.00 0.00 0.00 0.01 0.01 0.02 0.03 0.03 0.03 0.02 0.01 0.01 0.02 0.03 0.03 0.03 0.02 0.04 0.09 0.16 0.22 0.28 0.31 0.33 0.33 0.30 0.25 0.23 0.22 0.19 0.16 0.15 0.16 0.17 0.15 0.13 0.10 0.08 0.08 0.09
0.00 0.00 0.00 0.00 0.00 0.00 0.00 0.01 0.01 0.02 0.03 0.03 0.03 0.02 0.02 0.03 0.03 0.04 0.04 0.04 0.05 0.09 0.14 0.19 0.24 0.23 0.23 0.25 0.23 0.20 0.18 0.19 0.19 0.18 0.18 0.18 0.18 0.15 0.12 0.09 0.08 0.07 0.07
0.00 0.00 0.00 0.00 0.00 0.00 0.00 0.00 0.01 0.02 0.03 0.03 0.03 0.02 0.04 0.04 0.05 0.07 0.08 0.09 0.10 0.12 0.14 0.16 0.18 0.18 0.15 0.15 0.17 0.16 0.14 0.15 0.16 0.18 0.19 0.18 0.15 0.11 0.08 0.06 0.05 0.04 0.03
0.00 0.00 0.00 0.00 0.00 0.00 0.00 0.00 0.00 0.00 0.01 0.02 0.02 0.02 0.04 0.04 0.05 0.08 0.10 0.11 0.12 0.14 0.14 0.14 0.14 0.14 0.14 0.13 0.13 0.14 0.13 0.13 0.14 0.16 0.16 0.15 0.12 0.08 0.05 0.04 0.03 0.02 0.02
0.00 0.00 0.00 0.00 0.00 0.00 0.00 0.00 0.00 0.00 0.00 0.00 0.01 0.01 0.02 0.03 0.06 0.10 0.13 0.12 0.10 0.09 0.09 0.09 0.11 0.13 0.13 0.12 0.11 0.10 0.10 0.11 0.12 0.13 0.15 0.14 0.10 0.05 0.03 0.02 0.02 0.01 0.01
0.00 0.00 0.00 0.00 0.00 0.00 0.00 0.00 0.00 0.00 0.00 0.00 0.00 0.01 0.02 0.03 0.05 0.10 0.13 0.13 0.12 0.10 0.08 0.08 0.10 0.12 0.12 0.12 0.11 0.08 0.05 0.06 0.07 0.10 0.11 0.09 0.06 0.03 0.02 0.01 0.01 0.00 0.00
0.00 0.00 0.00 0.00 0.00 0.00 0.00 0.00 0.00 0.00 0.00 0.00 0.00 0.00 0.01 0.01 0.02 0.04 0.08 0.10 0.12 0.13 0.11 0.09 0.08 0.08 0.08 0.06 0.05 0.04 0.05 0.05 0.05 0.06 0.09 0.08 0.05 0.03 0.02 0.01 0.01 0.00 0.00
0.00 0.00 0.00 0.00 0.00 0.00 0.00 0.00 0.00 0.00 0.00 0.00 0.00 0.00 0.00 0.00 0.01 0.01 0.02 0.05 0.07 0.09 0.10 0.10 0.09 0.07 0.04 0.02 0.02 0.03 0.04 0.03 0.02 0.02 0.05 0.09 0.06 0.04 0.02 0.01 0.01 0.01 0.00